| time (UTC) | temp C | wind direction | speed KPH | gust KPH | rain 1hr cm | rain 24hr cm | rain mn cm | humidity % | barometer mb |
| 20260507012906 | 9 | 357 | 3.2 | 4.8 | 0.00 | 0.00 | 0.00 | 82 | 1010.5 |
| 20260507011405 | 9 | 344 | 1.6 | 3.2 | 0.00 | 0.00 | 0.00 | 81 | 1010.5 |
| 20260507005905 | 9 | 337 | 0.0 | 0.0 | 0.00 | 0.00 | 0.00 | 81 | 1010.5 |
| 20260507004406 | 9 | 337 | 0.0 | 0.0 | 0.00 | 0.00 | 0.00 | 81 | 1010.3 |
| 20260507002906 | 9 | 337 | 0.0 | 0.0 | 0.00 | 0.13 | 0.00 | 81 | 1010.2 |
| 20260507001406 | 9 | 320 | 0.0 | 0.0 | 0.00 | 0.13 | 0.00 | 81 | 1010.2 |
| 20260506235906 | 9 | 320 | 0.0 | 0.0 | 0.00 | 0.13 | 0.00 | 81 | 1010.1 |
| 20260506234406 | 9 | 320 | 0.0 | 0.0 | 0.00 | 0.13 | 0.00 | 80 | 1010.2 |
| 20260506232906 | 9 | 320 | 0.0 | 0.0 | 0.00 | 0.25 | 0.00 | 80 | 1010.2 |
| 20260506231406 | 10 | 320 | 0.0 | 0.0 | 0.00 | 0.25 | 0.00 | 80 | 1010.1 |
| 20260506225906 | 9 | 320 | 0.0 | 0.0 | 0.00 | 0.25 | 0.00 | 80 | 1010.2 |
| 20260506224406 | 9 | 320 | 0.0 | 4.8 | 0.00 | 0.25 | 0.00 | 80 | 1010.1 |
| 20260506222906 | 9 | 315 | 0.0 | 3.2 | 0.00 | 0.25 | 0.00 | 80 | 1010.0 |
| 20260506221406 | 9 | 306 | 0.0 | 0.0 | 0.00 | 0.25 | 0.00 | 81 | 1009.8 |
| 20260506215906 | 9 | 300 | 0.0 | 6.4 | 0.00 | 0.25 | 0.00 | 80 | 1009.7 |
| 20260506214406 | 9 | 322 | 0.0 | 3.2 | 0.00 | 0.25 | 0.00 | 80 | 1009.5 |
| 20260506212906 | 9 | 54 | 0.0 | 0.0 | 0.00 | 0.30 | 0.00 | 81 | 1009.4 |
| 20260506211406 | 9 | 317 | 0.0 | 4.8 | 0.00 | 0.30 | 0.00 | 81 | 1009.3 |
| 20260506205906 | 10 | 111 | 0.0 | 3.2 | 0.00 | 0.30 | 0.00 | 81 | 1009.2 |
| 20260506204406 | 10 | 46 | 0.0 | 0.0 | 0.00 | 0.30 | 0.00 | 81 | 1009.2 |
| 20260506202906 | 10 | 21 | 1.6 | 3.2 | 0.00 | 0.74 | 0.00 | 82 | 1009.2 |
| 20260506201406 | 10 | 74 | 0.0 | 0.0 | 0.00 | 0.74 | 0.00 | 82 | 1009.0 |
| 20260506195906 | 10 | 12 | 1.6 | 6.4 | 0.00 | 0.74 | 0.00 | 82 | 1008.9 |
| 20260506194406 | 10 | 331 | 4.8 | 6.4 | 0.00 | 0.74 | 0.00 | 82 | 1008.7 |
| 20260506192906 | 10 | 23 | 0.0 | 4.8 | 0.00 | 0.81 | 0.00 | 82 | 1008.6 |
| 20260506191406 | 10 | 329 | 0.0 | 8.0 | 0.00 | 0.81 | 0.00 | 82 | 1008.3 |
| 20260506185906 | 10 | 28 | 0.0 | 8.0 | 0.00 | 0.81 | 0.00 | 82 | 1008.1 |
| 20260506184406 | 10 | 11 | 4.8 | 12.9 | 0.00 | 0.81 | 0.00 | 81 | 1007.9 |
| 20260506182906 | 10 | 45 | 1.6 | 9.7 | 0.00 | 0.84 | 0.00 | 81 | 1007.8 |
| 20260506181406 | 10 | 343 | 6.4 | 11.3 | 0.00 | 0.84 | 0.00 | 80 | 1007.7 |
| 20260506175906 | 10 | 358 | 4.8 | 14.5 | 0.00 | 0.84 | 0.00 | 80 | 1007.6 |
| 20260506174406 | 11 | 11 | 6.4 | 12.9 | 0.00 | 0.84 | 0.00 | 100 | 1007.4 |
| 20260506172906 | 11 | 326 | 3.2 | 11.3 | 0.00 | 0.84 | 0.00 | 79 | 1007.4 |
| 20260506171406 | 11 | 26 | 0.0 | 8.0 | 0.00 | 0.84 | 0.00 | 79 | 1007.2 |
| 20260506165906 | 11 | 337 | 0.0 | 8.0 | 0.00 | 0.84 | 0.00 | 82 | 1007.1 |
| 20260506164406 | 11 | 327 | 4.8 | 9.7 | 0.00 | 0.84 | 0.00 | 82 | 1007.2 |
| 20260506162906 | 11 | 1 | 3.2 | 8.0 | 0.00 | 0.86 | 0.00 | 82 | 1007.3 |
| 20260506161406 | 11 | 330 | 9.7 | 11.3 | 0.00 | 0.86 | 0.00 | 80 | 1007.2 |
| 20260506155906 | 11 | 338 | 4.8 | 12.9 | 0.00 | 0.86 | 0.00 | 80 | 1007.1 |
| 20260506154406 | 12 | 310 | 0.0 | 3.2 | 0.00 | 0.86 | 0.00 | 79 | 1007.1 |
| 20260506152906 | 12 | 316 | 1.6 | 8.0 | 0.00 | 0.89 | 0.00 | 79 | 1007.0 |
| 20260506151406 | 12 | 8 | 4.8 | 11.3 | 0.00 | 0.89 | 0.00 | 79 | 1006.8 |
| 20260506145906 | 12 | 355 | 1.6 | 8.0 | 0.00 | 0.89 | 0.00 | 79 | 1006.7 |
| 20260506144406 | 12 | 347 | 3.2 | 9.7 | 0.00 | 0.89 | 0.00 | 79 | 1006.5 |
| 20260506142906 | 12 | 1 | 6.4 | 11.3 | 0.00 | 0.91 | 0.00 | 78 | 1006.4 |
| 20260506141406 | 12 | 15 | 3.2 | 9.7 | 0.00 | 0.91 | 0.00 | 78 | 1006.4 |
| 20260506135906 | 12 | 327 | 6.4 | 9.7 | 0.00 | 0.91 | 0.00 | 78 | 1006.4 |
| 20260506134406 | 12 | 348 | 4.8 | 8.0 | 0.00 | 0.91 | 0.00 | 77 | 1006.4 |
| 20260506132906 | 12 | 333 | 1.6 | 8.0 | 0.00 | 1.04 | 0.00 | 78 | 1006.4 |
| 20260506131406 | 13 | 358 | 4.8 | 11.3 | 0.00 | 1.04 | 0.00 | 76 | 1006.2 |
| 20260506125906 | 13 | 319 | 8.0 | 9.7 | 0.00 | 1.04 | 0.00 | 74 | 1006.1 |
| 20260506124406 | 13 | 340 | 4.8 | 11.3 | 0.00 | 1.04 | 0.00 | 75 | 1005.9 |
| 20260506122906 | 14 | 307 | 6.4 | 8.0 | 0.00 | 1.07 | 0.00 | 74 | 1005.8 |
| 20260506121406 | 13 | 327 | 4.8 | 6.4 | 0.00 | 1.07 | 0.00 | 75 | 1005.8 |
| 20260506115906 | 13 | 11 | 6.4 | 9.7 | 0.00 | 1.07 | 0.00 | 76 | 1005.7 |
| 20260506114406 | 13 | 7 | 6.4 | 9.7 | 0.00 | 1.07 | 0.00 | 76 | 1005.5 |
| 20260506112906 | 14 | 40 | 6.4 | 6.4 | 0.00 | 1.07 | 0.00 | 77 | 1005.5 |
| 20260506111406 | 15 | 293 | 0.0 | 9.7 | 0.00 | 1.07 | 0.00 | 76 | 1005.5 |
| 20260506105906 | 14 | 345 | 8.0 | 8.0 | 0.00 | 1.07 | 1.07 | 76 | 1005.5 |
| 20260506104406 | 14 | 323 | 3.2 | 8.0 | 0.00 | 1.07 | 1.07 | 76 | 1005.4 |
| 20260506102906 | 15 | 291 | 6.4 | 9.7 | 0.00 | 1.07 | 1.07 | 74 | 1005.4 |
| 20260506101406 | 13 | 305 | 0.0 | 4.8 | 0.00 | 1.07 | 1.07 | 80 | 1005.4 |
| 20260506095907 | 14 | 288 | 0.0 | 3.2 | 0.00 | 1.07 | 1.07 | 79 | 1005.2 |
| 20260506094406 | 13 | 320 | 3.2 | 4.8 | 0.00 | 1.07 | 1.07 | 82 | 1005.1 |
| 20260506092906 | 13 | 341 | 3.2 | 9.7 | 0.00 | 1.07 | 1.07 | 83 | 1005.1 |
| 20260506091407 | 13 | 306 | 0.0 | 8.0 | 0.00 | 1.07 | 1.07 | 82 | 1005.1 |
| 20260506085907 | 13 | 326 | 3.2 | 3.2 | 0.00 | 1.07 | 1.07 | 81 | 1004.8 |
| 20260506084407 | 13 | 292 | 3.2 | 11.3 | 0.00 | 1.07 | 1.07 | 83 | 1004.7 |
| 20260506082907 | 13 | 277 | 8.0 | 12.9 | 0.00 | 1.07 | 1.07 | 83 | 1004.6 |
| 20260506081407 | 12 | 303 | 0.0 | 8.0 | 0.00 | 1.07 | 1.07 | 87 | 1004.5 |
| 20260506072907 | 12 | 250 | 8.0 | 9.7 | 0.00 | 1.07 | 1.07 | 89 | 1004.7 |
| 20260506071407 | 11 | 264 | 8.0 | 9.7 | 0.00 | 1.07 | 1.07 | 89 | 1004.6 |
| 20260506061407 | 11 | 236 | 9.7 | 14.5 | 0.00 | 1.07 | 1.07 | 88 | 1004.2 |
| 20260506051407 | 12 | 217 | 4.8 | 11.3 | 0.00 | 1.07 | 1.07 | 88 | 1004.1 |
| 20260506044407 | 12 | 244 | 3.2 | 6.4 | 0.00 | 1.07 | 1.07 | 87 | 1004.2 |
| 20260506042907 | 12 | 223 | 0.0 | 0.0 | 0.00 | 1.07 | 1.07 | 87 | 1004.3 |
| 20260506041407 | 12 | 282 | 0.0 | 0.0 | 0.00 | 1.07 | 1.07 | 87 | 1004.4 |
| 20260506035907 | 12 | 282 | 0.0 | 3.2 | 0.00 | 1.07 | 1.07 | 88 | 1004.4 |
| 20260506034407 | 12 | 281 | 0.0 | 0.0 | 0.00 | 1.07 | 1.07 | 87 | 1004.6 |
| 20260506032907 | 12 | 219 | 0.0 | 1.6 | 0.00 | 1.07 | 1.07 | 88 | 1004.7 |
| 20260506031407 | 12 | 246 | 6.4 | 9.7 | 0.00 | 1.07 | 1.07 | 88 | 1004.7 |
| 20260506025907 | 12 | 268 | 3.2 | 8.0 | 0.00 | 1.07 | 1.07 | 88 | 1004.7 |
| 20260506024407 | 12 | 257 | 4.8 | 11.3 | 0.00 | 1.07 | 1.07 | 88 | 1004.7 |
| 20260506022907 | 12 | 236 | 1.6 | 9.7 | 0.00 | 1.07 | 1.07 | 88 | 1004.7 |
| 20260506021407 | 12 | 275 | 3.2 | 8.0 | 0.00 | 1.07 | 1.07 | 88 | 1004.6 |
| 20260506015907 | 12 | 265 | 6.4 | 11.3 | 0.00 | 1.07 | 1.07 | 87 | 1004.8 |
| 20260506014407 | 12 | 299 | 4.8 | 8.0 | 0.08 | 1.07 | 1.07 | 88 | 1004.9 |